Terminal Aerodrome Forecast
Issued by NWS

Home | Current Version | Previous Version | Text Only | Print | Product List | Glossary On
Versions: 1 2 3 4 5 6 7 8 9 10 11 12 13 14 15 16 17 18 19 20 21 22 23 24 25 26 27 28 29 30 31 32 33 34 35 36 37 38 39 40 41 42 43 44 45 46 47 48
776
FTUS45 KSLC 131720
TAFOGD
TAF
KOGD 131720Z 1318/1418 31005KT 1/4SM FZFG BKN002 OVC006
     FM131900 30005KT 2SM BR OVC006
     FM132100 30006KT 5SM HZ BKN008
     FM140300 20006KT 2SM BR OVC003
     FM141000 18005KT 2SM BR VCSH OVC003=

USA.gov is the U.S. government's official web portal to all federal, state and local government web resources and services.